Change the Weather History Date:

Wednesday, May 7, 2014

  Actual Average Record
Temperature  
Mean Temperature 53 °F -  
Max Temperature 60 °F 57 °F 68 °F (1949)
Min Temperature 46 °F 40 °F 30 °F (2001)
Degree Days  
Heating Degree Days 12    
Growing Degree Days 3 (Base 50)    
Moisture  
Dew Point 38 °F    
Average Humidity 63    
Maximum Humidity 83    
Minimum Humidity 36    
Precipitation  
Precipitation 0.00 in - - ()
Sea Level Pressure  
Sea Level Pressure 30.16 in    
Wind  
Wind Speed 8 mph (West)    
Max Wind Speed 13 mph    
Max Gust Speed -    
Visibility 10 miles    
Events      
Averages and records for this station are not official NWS values.
T = Trace of Precipitation, MM = Missing Value Source: NWS Daily Summary

Daily Weather History Graph

Daily Weather History Graph

Search for Another Location

Airport or City:

Trip Planner

Search our weather history database for the weather conditions in past years. The results will help you decide how hot, cold, wet, or windy it might be!

Date:

Astronomy

May. 07, 2014 Rise Set
Actual Time 5:30 AM EDT 7:43 PM EDT
Civil Twilight 4:59 AM EDT 8:14 PM EDT
Nautical Twilight 4:22 AM EDT 8:52 PM EDT
Astronomical Twilight 3:40 AM EDT 9:33 PM EDT
Moon 12:41 PM EDT (5/7) 1:32 AM EDT (5/7)
Length of Visible Light 15h 14m
Length of Day
14h 13m
First Quarter, 55% of the Moon is Illuminated
May 7
First Quarter
May 14
Full
May 21
Last Quarter
May 28
New
Jun 5
First Quarter

Hourly Weather History & Observations

Time (EDT) Temp. Windchill Dew Point Humidity Pressure Visibility Wind Dir Wind Speed Gust Speed Precip Events Conditions
12:53 AM 46.9 °F - 39.9 °F 77% 30.03 in 10.0 mi North 6.9 mph - N/A   Clear
1:53 AM 46.9 °F - 39.9 °F 77% 30.04 in 10.0 mi North 6.9 mph - N/A   Clear
2:53 AM 46.9 °F - 39.0 °F 74% 30.04 in 10.0 mi NNW 4.6 mph - N/A   Clear
3:53 AM 46.0 °F 43.1 °F 39.9 °F 79% 30.06 in 10.0 mi NNW 5.8 mph - N/A   Clear
5:53 AM 46.0 °F 41.9 °F 39.9 °F 79% 30.10 in 10.0 mi NW 8.1 mph - N/A   Clear
6:53 AM 50.0 °F - 37.9 °F 63% 30.12 in 10.0 mi NW 8.1 mph - N/A   Clear
7:53 AM 53.1 °F - 35.1 °F 50% 30.14 in 10.0 mi NW 11.5 mph - N/A   Clear
8:53 AM 55.0 °F - 34.0 °F 45% 30.15 in 10.0 mi NNW 10.4 mph - N/A   Clear
9:53 AM 57.0 °F - 34.0 °F 42% 30.17 in 10.0 mi NNW 12.7 mph - N/A   Clear
10:53 AM 57.9 °F - 33.1 °F 39% 30.19 in 10.0 mi NNW 11.5 mph - N/A   Clear
11:53 AM 59.0 °F - 34.0 °F 39% 30.20 in 10.0 mi NW 9.2 mph - N/A   Clear
12:53 PM 60.1 °F - 33.1 °F 36% 30.19 in 10.0 mi Variable 4.6 mph - N/A   Clear
1:53 PM 57.9 °F - 36.0 °F 44% 30.20 in 10.0 mi South 10.4 mph - N/A   Clear
2:53 PM 57.0 °F - 37.0 °F 47% 30.19 in 10.0 mi South 10.4 mph - N/A   Clear
3:53 PM 55.0 °F - 37.9 °F 53% 30.20 in 10.0 mi SSW 9.2 mph - N/A   Clear
4:53 PM 53.1 °F - 41.0 °F 64% 30.20 in 10.0 mi SSW 8.1 mph - N/A   Clear
6:53 PM 50.0 °F - 41.0 °F 71% 30.20 in 10.0 mi South 5.8 mph - N/A   Clear
7:53 PM 48.0 °F - 39.0 °F 71% 30.22 in 10.0 mi SSW 5.8 mph - N/A   Clear
8:53 PM 46.9 °F - 41.0 °F 80% 30.22 in 10.0 mi SSW 6.9 mph - N/A   Clear
9:53 PM 46.0 °F 42.5 °F 41.0 °F 83% 30.23 in 10.0 mi SSW 6.9 mph - N/A   Clear
10:53 PM 46.9 °F - 42.1 °F 83% 30.22 in 10.0 mi SSW 8.1 mph - N/A   Clear
11:53 PM 46.9 °F - 41.0 °F 80% 30.22 in 10.0 mi SSW 6.9 mph - N/A   Clear